Temp
-11 -11 -11 -10 -10 -11 -11 -11 -11 -11 -11 -11 -11 -11 -11 -12 -12 -12 -12 -12 -12 -12 -12 -11 -11 -11 -11 -11 -12 -10 -11 -11 -10 -10 -10 -10 -10 -9 -9 -9 -9 -9 -9 -9 -9 -9 -10
-11 -11 -10 -11 -11 -11 -11 -11 -11 -11 -11 -11 -12 -11 -11 -11 -12 -12 -12 -13 -13 -12 -12 -12 -11 -11 -11 -11 -12 -11 -11 -11 -11 -11 -10 -10 -10 -10 -9 -10 -10 -10 -9 -10 -10 -10 -10
-11 -11 -11 -11 -11 -11 -11 -11 -11 -11 -11 -11 -12 -12 -12 -13 -12 -12 -12 -12 -13 -13 -12 -12 -12 -11 -11 -12 -11 -11 -12 -12 -12 -11 -11 -11 -10 -10 -10 -10 -10 -10 -10 -10 -11 -12 -11
-11 -11 -11 -11 -11 -12 -12 -11 -11 -11 -11 -11 -12 -12 -12 -13 -13 -13 -13 -13 -13 -13 -13 -12 -12 -11 -11 -12 -11 -12 -12 -12 -12 -11 -11 -11 -11 -10 -10 -11 -11 -11 -11 -11 -13 -13 -12
-12 -12 -12 -12 -12 -12 -12 -12 -12 -12 -11 -11 -12 -12 -12 -12 -13 -13 -14 -13 -13 -13 -13 -12 -12 -11 -12 -12 -12 -12 -12 -12 -12 -11 -11 -11 -11 -11 -12 -12 -12 -12 -12 -12 -13 -14 -13
-13 -13 -13 -13 -12 -12 -12 -12 -12 -12 -12 -13 -13 -13 -13 -14 -14 -15 -14 -14 -14 -14 -14 -13 -12 -12 -12 -12 -13 -13 -13 -12 -12 -12 -11 -11 -11 -11 -13 -13 -12 -13 -12 -12 -13 -15 -14
-14 -13 -13 -13 -13 -12 -13 -13 -13 -13 -14 -15 -15 -15 -15 -16 -15 -15 -15 -15 -15 -14 -13 -14 -13 -13 -13 -13 -13 -13 -13 -13 -12 -12 -12 -12 -11 -13 -14 -13 -13 -13 -13 -13 -15 -15 -14
-15 -15 -14 -14 -15 -16 -16 -17 -17 -17 -18 -18 -18 -18 -17 -17 -17 -16 -17 -17 -16 -14 -14 -14 -14 -14 -14 -13 -14 -14 -13 -14 -13 -13 -13 -13 -13 -16 -14 -14 -14 -14 -14 -14 -15 -16 -15
-17 -17 -18 -17 -18 -18 -18 -18 -18 -18 -18 -18 -18 -18 -18 -18 -18 -17 -18 -17 -17 -17 -16 -14 -14 -14 -15 -14 -14 -14 -13 -14 -13 -14 -14 -14 -16 -15 -16 -15 -15 -15 -15 -15 -15 -16 -16
-18 -18 -19 -19 -19 -19 -19 -19 -19 -19 -19 -19 -19 -19 -19 -19 -19 -18 -18 -18 -18 -18 -17 -15 -15 -14 -15 -14 -14 -15 -15 -15 -15 -16 -15 -15 -17 -16 -16 -16 -16 -16 -16 -16 -16 -16 -16
-19 -19 -19 -20 -20 -20 -19 -20 -20 -20 -20 -19 -19 -19 -20 -19 -19 -19 -19 -19 -19 -18 -18 -17 -16 -15 -16 -15 -15 -16 -16 -16 -16 -16 -16 -16 -17 -17 -17 -17 -17 -16 -17 -17 -16 -16 -16
-20 -20 -20 -20 -20 -20 -20 -19 -20 -19 -20 -19 -19 -19 -20 -19 -19 -19 -19 -19 -19 -19 -19 -18 -17 -17 -16 -16 -16 -17 -17 -17 -17 -17 -17 -18 -18 -17 -17 -17 -17 -17 -17 -17 -17 -17 -17
-21 -21 -20 -20 -20 -20 -20 -20 -20 -20 -20 -19 -20 -19 -20 -19 -19 -19 -19 -19 -19 -19 -19 -19 -18 -17 -17 -18 -17 -17 -18 -18 -18 -18 -18 -18 -18 -18 -18 -18 -18 -18 -18 -18 -18 -18 -18
-21 -21 -21 -21 -20 -20 -20 -21 -20 -21 -20 -20 -20 -19 -20 -20 -19 -19 -19 -19 -19 -18 -18 -18 -19 -19 -18 -18 -18 -19 -19 -18 -18 -19 -19 -18 -19 -19 -19 -19 -19 -19 -19 -19 -19 -19 -18
-21 -21 -21 -21 -21 -20 -20 -21 -21 -21 -20 -20 -20 -20 -20 -19 -19 -20 -20 -19 -19 -18 -19 -19 -20 -20 -19 -19 -20 -21 -20 -19 -19 -19 -20 -19 -19 -20 -20 -20 -19 -19 -20 -20 -20 -19 -19
-21 -21 -21 -21 -21 -21 -21 -21 -21 -21 -21 -20 -20 -20 -20 -19 -20 -20 -20 -20 -20 -20 -21 -21 -21 -21 -20 -21 -21 -21 -21 -20 -20 -20 -21 -20 -19 -19 -20 -20 -20 -20 -20 -20 -20 -20 -19
-22 -22 -21 -21 -21 -21 -21 -21 -20 -21 -21 -20 -20 -20 -20 -19 -20 -21 -21 -21 -21 -22 -22 -22 -22 -22 -22 -23 -23 -22 -22 -21 -21 -21 -21 -20 -20 -19 -20 -21 -21 -21 -20 -20 -20 -21 -21
-22 -22 -22 -22 -22 -21 -21 -21 -21 -21 -20 -21 -20 -20 -19 -20 -21 -22 -22 -21 -22 -23 -23 -23 -23 -23 -23 -22 -23 -23 -23 -22 -22 -21 -21 -21 -20 -19 -20 -20 -21 -21 -21 -21 -21 -21 -21
-23 -22 -22 -22 -22 -22 -21 -21 -21 -21 -21 -21 -21 -21 -20 -21 -22 -23 -24 -24 -24 -24 -23 -23 -23 -23 -23 -23 -24 -23 -23 -22 -22 -22 -22 -21 -20 -20 -20 -20 -21 -21 -21 -21 -22 -22 -21
-23 -23 -22 -22 -22 -22 -22 -22 -22 -22 -21 -21 -21 -21 -21 -21 -23 -23 -23 -23 -23 -24 -24 -23 -23 -23 -24 -24 -24 -23 -23 -23 -22 -22 -22 -21 -21 -21 -21 -21 -21 -22 -22 -23 -23 -22 -22
-24 -23 -23 -23 -22 -22 -22 -22 -22 -22 -22 -22 -22 -22 -23 -23 -24 -24 -24 -25 -24 -25 -25 -25 -25 -24 -24 -24 -24 -23 -23 -22 -22 -21 -21 -22 -22 -22 -22 -23 -23 -22 -23 -23 -23 -23 -22
-24 -24 -24 -23 -23 -22 -22 -22 -23 -23 -22 -23 -24 -24 -24 -24 -24 -25 -25 -25 -26 -25 -25 -25 -25 -24 -24 -23 -23 -23 -22 -22 -22 -22 -22 -22 -23 -23 -24 -24 -25 -25 -24 -24 -24 -24 -22
-25 -24 -24 -23 -23 -23 -23 -23 -23 -24 -24 -24 -24 -25 -25 -25 -25 -25 -26 -26 -26 -25 -25 -25 -24 -24 -23 -23 -23 -23 -22 -23 -23 -23 -23 -23 -24 -25 -25 -26 -26 -26 -26 -26 -25 -25 -24
-25 -25 -24 -24 -23 -23 -24 -24 -24 -24 -24 -24 -25 -25 -26 -26 -26 -25 -26 -26 -25 -25 -25 -24 -24 -23 -23 -23 -23 -23 -23 -23 -23 -24 -24 -25 -26 -26 -26 -26 -26 -26 -26 -25 -25 -25 -24
-25 -25 -24 -24 -24 -24 -24 -24 -24 -24 -25 -26 -26 -26 -26 -26 -26 -26 -26 -25 -25 -25 -24 -24 -24 -23 -23 -23 -23 -23 -23 -24 -24 -24 -25 -26 -26 -26 -26 -27 -26 -26 -26 -25 -25 -25 -25
-26 -25 -25 -25 -24 -24 -24 -25 -26 -26 -26 -26 -26 -26 -26 -27 -26 -26 -25 -25 -25 -24 -24 -24 -24 -24 -24 -24 -24 -24 -24 -25 -25 -26 -25 -26 -26 -27 -27 -27 -26 -26 -26 -25 -25 -24 -24
-26 -26 -25 -25 -25 -25 -25 -26 -26 -26 -26 -26 -26 -26 -27 -27 -26 -26 -25 -25 -25 -25 -24 -24 -24 -24 -24 -24 -24 -24 -25 -26 -26 -25 -26 -26 -26 -26 -26 -26 -26 -25 -25 -25 -24 -24 -23
-27 -26 -26 -26 -25 -25 -26 -26 -26 -26 -26 -26 -27 -27 -26 -26 -26 -26 -25 -25 -25 -25 -25 -24 -24 -24 -24 -24 -24 -25 -26 -27 -26 -26 -25 -26 -26 -26 -26 -26 -26 -25 -24 -24 -23 -23 -23
-27 -26 -26 -26 -26 -26 -26 -26 -26 -26 -27 -27 -27 -27 -27 -26 -26 -26 -25 -25 -25 -25 -25 -25 -25 -25 -25 -25 -25 -25 -26 -26 -26 -26 -25 -26 -26 -26 -26 -26 -26 -25 -24 -24 -24 -23 -23
Height
5736 5737 5736 5736 5735 5737 5737 5736 5735 5735 5735 5733 5733 5734 5735 5734 5736 5736 5735 5736 5737 5736 5737 5740 5741 5742 5744 5746 5743 5740 5743 5743 5741 5741 5741 5740 5740 5739 5739 5739 5738 5738 5740 5737 5736 5735 5736
5722 5722 5723 5723 5723 5722 5722 5722 5722 5721 5721 5721 5722 5721 5723 5723 5723 5724 5725 5723 5725 5725 5726 5728 5730 5732 5734 5736 5731 5733 5733 5731 5731 5731 5730 5730 5730 5730 5730 5729 5728 5727 5727 5726 5725 5723 5724
5707 5707 5708 5707 5708 5708 5706 5705 5706 5705 5706 5707 5707 5708 5710 5710 5711 5711 5712 5712 5712 5711 5713 5716 5719 5720 5722 5722 5720 5723 5721 5720 5721 5720 5720 5719 5719 5719 5719 5718 5717 5717 5717 5715 5714 5712 5711
5692 5691 5690 5691 5691 5690 5689 5689 5686 5687 5688 5688 5690 5692 5693 5695 5696 5697 5697 5698 5699 5697 5700 5703 5705 5708 5711 5706 5708 5709 5710 5709 5708 5707 5708 5707 5707 5707 5707 5706 5705 5705 5705 5706 5704 5698 5699
5672 5674 5674 5672 5672 5673 5672 5669 5669 5668 5670 5670 5670 5671 5675 5677 5678 5681 5683 5683 5683 5684 5686 5689 5691 5695 5698 5696 5697 5696 5698 5697 5697 5696 5695 5695 5695 5696 5695 5695 5695 5694 5694 5692 5693 5689 5689
5655 5657 5655 5655 5653 5653 5653 5651 5648 5647 5648 5648 5649 5651 5655 5657 5659 5662 5666 5665 5666 5669 5673 5674 5677 5682 5684 5682 5684 5685 5685 5686 5686 5685 5685 5684 5684 5683 5684 5685 5685 5683 5682 5684 5684 5681 5678
5631 5638 5637 5638 5636 5634 5631 5628 5627 5624 5624 5625 5626 5629 5635 5637 5639 5644 5649 5649 5653 5654 5659 5663 5666 5667 5668 5671 5671 5671 5673 5676 5676 5675 5674 5673 5674 5674 5674 5672 5673 5673 5674 5676 5676 5671 5672
5613 5613 5617 5615 5611 5608 5607 5605 5605 5604 5604 5605 5607 5611 5615 5617 5619 5625 5631 5633 5636 5637 5641 5646 5651 5656 5654 5656 5660 5659 5661 5664 5664 5663 5661 5662 5664 5663 5661 5663 5663 5663 5666 5668 5667 5662 5663
5598 5594 5593 5594 5592 5588 5588 5588 5588 5586 5586 5589 5592 5595 5600 5600 5603 5609 5613 5616 5619 5618 5620 5632 5635 5642 5639 5644 5647 5648 5648 5650 5652 5651 5651 5653 5655 5652 5654 5653 5655 5656 5656 5659 5659 5656 5655
5584 5581 5576 5577 5576 5575 5573 5573 5573 5571 5572 5574 5577 5581 5583 5586 5591 5595 5599 5602 5603 5602 5602 5616 5619 5627 5623 5630 5634 5633 5635 5639 5640 5640 5640 5643 5644 5644 5644 5645 5647 5647 5647 5648 5649 5648 5649
5569 5567 5566 5563 5562 5561 5559 5557 5557 5556 5557 5560 5564 5569 5572 5576 5579 5584 5589 5590 5591 5594 5589 5599 5603 5608 5610 5617 5622 5619 5623 5625 5627 5629 5633 5636 5633 5635 5636 5639 5636 5641 5638 5639 5640 5640 5642
5552 5551 5551 5550 5549 5548 5544 5540 5540 5540 5545 5549 5552 5554 5560 5564 5568 5573 5576 5577 5581 5583 5585 5587 5589 5596 5600 5602 5606 5604 5609 5613 5616 5619 5622 5623 5624 5627 5630 5629 5630 5631 5631 5631 5632 5631 5633
5539 5538 5536 5536 5536 5536 5535 5529 5534 5535 5537 5540 5543 5545 5550 5549 5557 5560 5563 5566 5569 5572 5574 5576 5580 5585 5587 5590 5591 5594 5598 5602 5606 5610 5614 5616 5618 5620 5621 5623 5623 5623 5623 5623 5622 5622 5622
5528 5528 5526 5525 5526 5526 5527 5526 5527 5527 5529 5531 5533 5536 5539 5542 5544 5543 5548 5553 5557 5562 5563 5566 5570 5572 5576 5579 5580 5583 5587 5593 5598 5603 5607 5609 5612 5612 5614 5615 5617 5616 5616 5614 5613 5611 5613
5517 5518 5517 5517 5517 5518 5518 5519 5519 5521 5521 5522 5525 5527 5528 5532 5533 5533 5536 5540 5545 5549 5553 5557 5561 5564 5567 5569 5573 5575 5578 5584 5590 5594 5599 5601 5604 5606 5607 5605 5608 5607 5607 5607 5602 5603 5600
5506 5507 5508 5509 5509 5510 5509 5510 5513 5513 5513 5515 5518 5519 5520 5521 5520 5522 5527 5531 5534 5537 5543 5547 5552 5557 5560 5563 5565 5569 5573 5579 5583 5588 5592 5594 5596 5599 5599 5598 5598 5596 5596 5596 5594 5594 5591
5495 5497 5499 5501 5500 5501 5501 5502 5503 5505 5506 5507 5510 5511 5511 5511 5511 5512 5516 5521 5526 5530 5535 5542 5548 5553 5555 5557 5561 5564 5568 5573 5576 5582 5586 5587 5589 5590 5591 5590 5589 5589 5587 5587 5587 5586 5584
5483 5487 5490 5491 5491 5492 5493 5494 5494 5496 5498 5499 5501 5503 5503 5504 5504 5504 5508 5512 5518 5525 5532 5538 5542 5546 5550 5555 5557 5560 5563 5567 5571 5575 5577 5579 5578 5578 5579 5578 5577 5578 5577 5577 5576 5577 5574
5472 5476 5480 5482 5483 5483 5484 5485 5486 5487 5489 5491 5494 5495 5496 5498 5500 5502 5505 5511 5517 5523 5526 5533 5539 5544 5548 5550 5554 5557 5560 5564 5566 5568 5567 5568 5568 5568 5567 5565 5566 5567 5567 5564 5562 5561 5565
5461 5466 5471 5473 5474 5477 5477 5478 5479 5481 5482 5485 5487 5490 5492 5495 5499 5502 5506 5512 5518 5522 5526 5530 5535 5539 5544 5547 5550 5552 5554 5558 5559 5560 5559 5558 5558 5559 5557 5555 5554 5555 5552 5548 5547 5547 5552
5452 5458 5462 5465 5467 5469 5470 5472 5474 5475 5477 5481 5484 5487 5491 5494 5499 5503 5507 5512 5515 5519 5524 5530 5535 5539 5542 5545 5546 5548 5549 5550 5550 5550 5552 5551 5550 5548 5546 5543 5542 5537 5537 5536 5532 5536 5538
5444 5450 5454 5457 5460 5462 5463 5466 5469 5471 5474 5478 5482 5484 5488 5493 5498 5502 5506 5511 5516 5521 5525 5529 5533 5536 5538 5540 5541 5543 5544 5544 5543 5541 5540 5539 5537 5536 5534 5530 5525 5523 5526 5523 5521 5520 5525
5436 5442 5447 5450 5454 5456 5458 5461 5464 5467 5471 5474 5478 5481 5489 5493 5497 5502 5507 5512 5517 5520 5524 5527 5530 5532 5534 5537 5537 5537 5536 5536 5536 5534 5530 5529 5526 5523 5525 5521 5517 5515 5512 5509 5508 5507 5513
5430 5436 5440 5444 5448 5451 5454 5457 5461 5464 5468 5473 5477 5483 5488 5493 5498 5503 5507 5512 5516 5520 5523 5525 5526 5528 5531 5531 5531 5531 5530 5528 5527 5524 5521 5520 5517 5516 5517 5513 5511 5509 5506 5505 5502 5500 5506
5424 5430 5434 5439 5443 5447 5450 5454 5458 5463 5468 5472 5477 5483 5488 5494 5499 5504 5507 5511 5514 5517 5520 5521 5523 5525 5525 5525 5525 5524 5523 5520 5517 5515 5514 5514 5511 5508 5507 5508 5509 5506 5503 5503 5504 5504 5509
5419 5425 5430 5434 5439 5443 5447 5452 5458 5462 5467 5472 5477 5483 5487 5492 5498 5501 5506 5509 5511 5513 5516 5517 5519 5520 5520 5519 5519 5517 5515 5513 5511 5512 5511 5509 5505 5501 5501 5504 5505 5503 5502 5501 5504 5508 5512
5415 5421 5425 5431 5436 5441 5447 5453 5457 5462 5467 5473 5478 5483 5488 5492 5497 5500 5504 5507 5509 5511 5513 5514 5514 5515 5515 5514 5513 5512 5510 5510 5509 5509 5508 5506 5505 5502 5502 5503 5504 5502 5501 5500 5504 5510 5511
5412 5417 5422 5428 5434 5439 5446 5451 5457 5462 5467 5473 5479 5484 5488 5492 5496 5500 5502 5505 5506 5507 5508 5510 5511 5511 5510 5510 5509 5508 5507 5507 5507 5507 5507 5505 5505 5504 5504 5503 5503 5501 5502 5504 5505 5508 5511
5409 5415 5419 5425 5431 5439 5444 5450 5456 5462 5467 5473 5478 5482 5487 5492 5496 5497 5499 5500 5503 5504 5505 5506 5507 5506 5507 5506 5504 5503 5505 5506 5507 5506 5506 5506 5504 5503 5504 5503 5502 5503 5501 5503 5506 5508 5513
Wind_Speed
58 59 60 60 60 61 63 62 62 61 59 61 58 56 55 56 57 56 53 51 48 48 51 54 53 50 49 46 44 51 46 43 45 44 44 46 47 49 50 52 54 52 50 52 53 53 49
66 65 65 65 68 69 69 70 68 67 67 65 64 64 60 57 57 59 58 53 54 53 49 53 54 55 51 49 49 49 48 47 48 46 47 49 50 51 53 53 53 52 54 54 53 51 51
73 72 73 74 75 76 77 78 78 76 74 72 68 68 64 64 60 59 60 58 56 54 55 53 53 50 50 50 52 47 44 48 50 48 49 51 53 54 55 54 55 55 56 57 49 46 53
79 80 80 80 81 80 79 81 83 85 85 78 75 74 70 66 66 65 63 62 62 58 57 57 55 55 49 50 53 49 48 44 48 49 51 51 51 51 52 53 54 54 54 48 41 47 48
86 88 89 87 88 89 85 86 91 87 88 86 80 76 74 74 65 66 65 62 63 62 59 62 57 57 53 51 54 51 48 46 47 48 49 49 48 48 50 50 50 47 47 47 42 42 43
92 90 91 94 91 91 91 91 92 94 92 85 82 78 76 72 66 70 67 67 69 67 60 56 54 57 56 51 47 47 45 44 43 43 44 46 46 48 47 47 47 44 49 44 40 35 37
89 97 93 92 88 89 88 89 88 87 83 79 76 78 73 74 71 69 71 76 66 66 70 56 51 48 45 44 44 35 35 40 45 46 46 45 47 40 38 47 47 44 43 41 32 36 35
70 73 77 79 73 72 72 73 73 69 65 68 73 72 71 71 70 69 66 67 71 69 64 61 61 48 44 46 49 47 46 47 49 45 44 46 42 34 42 41 42 43 39 35 32 34 33
61 62 61 61 62 65 65 64 62 62 62 63 64 68 65 61 65 66 64 61 67 70 76 66 69 67 65 57 54 51 51 52 50 46 44 45 35 39 37 39 39 37 38 33 34 29 30
54 55 57 56 56 57 57 58 58 60 60 57 56 56 55 51 56 57 58 63 64 63 62 64 62 63 59 58 52 49 48 48 45 40 43 44 35 36 38 38 36 38 34 34 29 30 30
52 52 53 55 54 55 55 58 60 59 52 52 52 51 50 47 45 46 49 49 52 49 51 54 53 54 51 52 49 47 47 47 44 41 43 36 34 36 37 31 36 34 31 30 31 32 31
47 48 49 50 49 50 52 57 45 45 36 41 48 50 45 45 43 45 47 48 40 41 44 41 46 46 47 47 46 47 47 45 43 40 40 35 36 37 32 33 32 31 32 33 33 34 30
42 42 41 40 38 40 39 23 29 39 38 53 36 36 46 46 47 43 45 42 43 43 40 40 39 42 41 41 44 46 45 44 43 40 38 35 35 32 31 30 31 31 32 34 35 32 31
43 40 38 37 35 35 33 26 39 33 41 43 37 41 41 44 46 41 46 46 41 40 45 46 40 37 39 42 41 40 41 40 40 37 33 33 29 31 31 30 31 31 32 34 35 33 32
43 40 36 33 33 30 29 29 23 25 30 33 35 39 35 37 46 42 40 43 46 47 45 48 38 36 37 38 37 36 37 37 35 33 32 31 31 27 28 31 32 33 32 32 35 33 36
43 40 36 33 32 28 28 27 28 27 26 30 34 33 32 31 35 38 40 42 48 45 43 36 32 39 39 34 35 33 30 31 32 30 28 31 30 28 28 31 34 35 35 34 35 34 37
44 41 36 32 31 28 28 28 27 28 29 30 32 28 26 30 30 34 36 43 45 40 38 36 29 28 34 34 31 29 28 29 28 25 23 26 28 31 31 31 33 35 39 39 39 38 38
44 40 34 31 30 28 28 30 31 29 29 28 28 28 29 27 25 33 41 44 47 38 29 35 34 31 30 27 22 25 26 29 26 22 24 27 31 35 34 35 36 36 40 43 43 41 46
41 39 33 30 28 27 28 28 29 27 27 24 24 24 24 22 27 36 37 33 33 35 38 32 33 33 26 23 23 22 21 23 21 23 29 30 33 34 37 40 40 40 42 46 50 52 47
39 35 30 29 25 25 26 28 25 24 22 21 23 24 25 22 28 32 31 25 21 22 26 29 30 23 19 20 21 21 21 23 27 28 31 34 36 38 41 44 44 43 45 48 50 53 50
35 32 28 26 24 24 24 25 22 20 19 19 21 21 22 25 28 22 18 20 24 21 15 13 15 18 17 17 19 21 24 26 29 32 34 34 36 39 42 42 43 46 47 48 53 53 52
32 30 25 23 23 22 22 23 21 18 18 19 22 25 26 25 23 21 24 21 17 15 16 17 16 15 18 20 22 22 24 27 29 32 33 34 37 37 35 35 33 38 39 43 50 54 52
30 28 23 23 23 20 21 21 21 17 19 27 30 27 23 22 25 26 19 17 17 15 13 14 15 16 18 18 19 22 24 25 26 28 34 35 31 30 24 26 29 36 27 19 24 40 50
30 25 22 22 20 19 19 21 23 24 25 27 26 24 24 24 22 20 18 17 17 15 14 13 15 16 15 17 19 19 20 23 26 29 28 22 24 25 23 26 28 14 13 10 18 18 35
28 24 22 22 21 20 20 22 22 20 28 30 31 28 23 21 17 17 16 16 14 13 14 15 14 14 14 14 16 18 19 23 24 23 20 21 25 27 25 19 10 14 17 2 9 13 21
27 22 21 23 22 20 18 19 23 32 32 31 29 26 22 20 18 17 16 14 14 14 13 12 12 13 11 12 14 17 20 19 18 16 16 20 19 12 11 11 9 13 16 18 6 14 25
27 24 25 24 22 20 21 30 35 30 27 27 26 23 21 19 20 17 16 16 14 13 13 11 10 11 11 12 14 16 13 11 9 11 10 5 0 5 5 6 6 8 11 13 7 21 20
28 25 25 24 23 23 30 36 33 31 30 27 24 20 20 21 19 18 16 12 11 11 10 11 11 11 11 12 13 13 9 5 7 7 4 2 5 10 7 9 5 2 2 7 11 16 12
29 27 27 26 22 27 35 35 32 32 30 28 24 22 22 18 15 14 13 11 11 10 11 13 12 12 11 11 12 11 15 8 7 2 5 6 1 8 3 7 5 5 13 8 19 21 12
Wind_Direction
278 281 282 281 281 282 282 283 283 281 279 276 274 271 264 262 263 264 265 267 268 266 264 266 264 263 264 267 265 268 267 272 269 270 272 273 275 274 276 278 281 281 279 276 277 279 280
280 281 281 283 284 282 284 285 283 283 282 279 278 274 269 262 261 261 263 264 266 264 267 268 268 266 264 268 267 265 267 268 270 272 274 275 274 275 276 276 277 277 277 276 277 277 273
277 278 280 281 282 285 284 286 287 286 284 282 280 277 274 267 264 260 258 263 262 263 262 264 266 269 266 267 268 268 267 269 270 271 271 271 273 275 276 275 274 274 274 275 276 273 273
280 281 282 283 285 288 288 285 285 286 287 284 280 277 275 271 266 265 260 261 263 262 263 264 267 268 272 265 264 268 269 271 269 270 273 274 274 273 272 273 273 273 274 275 269 266 266
284 288 289 287 289 288 289 288 287 284 284 282 278 274 272 272 262 261 266 258 262 263 265 265 268 267 269 266 267 266 268 267 270 272 272 274 275 276 274 273 273 273 275 269 265 262 263
286 287 289 290 289 288 286 287 285 284 282 277 273 268 266 263 258 253 255 253 256 264 262 265 266 264 266 264 261 262 261 265 268 272 273 272 274 274 273 274 272 265 270 272 266 261 261
289 289 289 286 286 286 286 284 278 274 270 267 264 263 260 257 251 252 250 255 255 261 262 261 264 257 259 261 253 253 265 273 274 270 267 267 270 272 266 267 272 270 268 266 262 261 266
285 285 288 288 284 279 275 272 271 273 271 265 260 256 255 255 251 251 248 251 256 253 252 252 253 254 252 250 263 265 270 278 277 269 266 266 269 258 260 264 263 262 262 260 257 262 275
279 278 277 275 273 275 274 274 273 270 266 263 260 259 261 259 257 253 248 250 251 255 256 254 252 251 262 260 270 273 270 266 264 261 262 263 257 258 258 258 259 261 261 259 261 267 279
273 273 275 276 274 274 274 272 272 273 268 262 261 259 258 262 257 257 254 253 252 251 259 252 254 259 260 263 261 260 258 257 255 254 255 258 251 255 256 258 259 257 258 260 266 272 279
271 269 269 272 273 274 276 274 275 275 271 261 259 256 253 253 257 258 256 253 259 259 261 253 252 250 253 257 257 252 251 250 246 247 252 251 245 246 249 248 250 259 261 264 268 273 278
273 272 269 271 270 270 276 278 269 261 258 256 245 245 254 251 251 253 253 252 256 258 254 252 252 253 254 252 250 244 242 243 243 245 243 240 242 248 246 249 257 262 263 266 271 276 285
276 278 277 277 272 272 284 265 262 259 253 253 242 261 259 248 255 257 250 251 254 260 247 245 248 248 243 238 235 237 238 237 237 237 241 239 245 249 251 259 263 264 268 273 273 280 287
272 277 279 278 275 278 279 271 253 266 261 256 265 257 266 263 267 260 256 258 254 249 244 239 236 230 230 233 226 227 230 234 235 233 233 238 239 249 257 257 257 265 269 269 277 280 284
267 270 276 273 271 276 269 266 272 264 263 249 259 268 260 258 259 261 248 246 241 240 237 230 218 213 216 219 217 216 221 226 229 234 235 237 245 253 258 261 263 261 261 265 270 276 282
262 266 272 272 269 268 264 255 264 263 253 246 259 261 260 260 257 249 250 246 238 223 211 206 206 208 209 207 216 222 225 232 236 237 239 243 247 246 248 250 255 262 265 265 268 273 274
256 260 265 267 266 265 262 257 251 249 250 245 256 263 264 268 270 248 241 230 219 206 206 191 199 204 211 201 210 222 228 240 242 241 242 250 249 250 248 253 255 258 263 265 267 267 262
250 254 256 259 263 263 259 256 247 249 249 246 255 256 270 270 265 241 224 215 212 191 186 204 202 207 210 215 215 222 231 237 245 254 254 252 254 256 259 260 262 260 262 261 255 247 258
244 248 249 254 260 262 262 259 246 246 242 247 250 252 258 258 228 215 204 200 190 192 195 194 209 217 219 217 225 237 243 243 244 252 256 259 261 267 270 271 268 266 265 263 259 256 257
238 240 243 250 256 258 256 252 247 245 241 243 248 247 242 235 223 213 205 196 196 200 202 209 211 210 209 222 234 238 246 254 256 258 263 265 268 270 272 272 271 269 268 263 259 257 253
233 235 238 245 249 251 248 247 239 231 230 230 227 228 230 214 198 198 194 188 180 172 173 185 201 215 220 228 241 248 252 257 262 266 269 268 268 269 270 272 270 267 264 260 260 259 254
228 230 233 238 240 244 240 236 229 218 213 207 209 203 198 195 193 186 178 168 160 175 190 201 212 224 233 236 241 248 258 266 270 271 273 274 275 274 275 277 273 272 269 262 254 251 249
224 227 228 228 229 232 229 223 218 204 208 198 203 191 177 173 176 172 164 170 179 185 195 211 224 233 239 245 251 260 268 270 272 275 276 279 278 279 277 275 280 293 293 290 280 250 241
219 220 220 217 217 219 215 212 207 201 201 197 184 176 170 169 174 162 158 176 194 201 210 225 235 237 239 251 262 266 273 276 276 275 274 271 279 281 277 279 297 283 254 339 295 258 233
215 212 212 211 210 212 201 200 201 197 176 172 168 168 165 158 163 175 180 192 200 212 222 230 228 237 255 265 275 279 282 284 283 276 272 279 289 287 279 282 258 274 271 268 211 247 218
208 205 207 207 208 196 190 195 190 171 171 172 175 169 165 168 175 188 192 204 219 224 233 233 240 253 268 283 289 290 287 282 259 265 280 289 295 282 251 223 269 271 267 249 271 203 186
200 201 204 200 196 189 185 180 178 176 176 178 172 165 164 179 187 191 201 212 220 230 230 238 260 273 279 294 298 296 279 240 260 280 277 262 103 142 202 237 196 275 252 273 273 205 204
195 197 196 192 192 187 186 185 182 181 174 172 170 172 181 186 194 203 213 218 223 232 247 257 267 275 285 292 297 295 215 185 240 235 183 170 306 330 301 298 304 335 33 187 205 190 209
191 191 191 187 185 191 188 187 181 179 177 181 172 183 193 188 201 210 217 223 232 242 251 260 271 281 286 292 301 275 202 169 168 220 223 292 343 269 240 153 80 158 137 204 175 175 208